Hourly Data Report for October 15, 2014

All times are specified in Local Standard Time (LST). Add 1 hour to adjust for Daylight Saving Time where and when it is observed.

CAPE DORSET A
NUNAVUT

64°13'49.000" N
76°31'30.000" W
48.20 m
2400637
71366
YTE

Download Data

Hourly Data (October 2014)
Hourly Data Report for October 15, 2014
Temp Definition
°C
Dew Point Temp Definition
°C
Rel Hum Definition
%
Wind Dir Definition
10's deg

Wind Spd Definition
km/h
Visibility Definition
km
Stn Press Definition
kPa
Hmdx Definition


Wind Chill Definition


Weather Definition


TIME
00:00 Legend Double Dagger -3.0 -3.6 96 19 13 14.5 100.06   -8 LegendNANA
01:00 Legend Double Dagger -2.1 -2.7 96 20 17 2.0 100.03   -7 Snow
02:00 Legend Double Dagger -2.5 LegendMM LegendMM 27 9 3.2 100.04   -6 Snow
03:00 Legend Double Dagger -2.9 -2.9 100 29 8 16.1 100.06   -6 LegendNANA
04:00 Legend Double Dagger -2.3 -5.5 79 29 21 16.1 100.08   -8 LegendNANA
05:00 Legend Double Dagger -2.4 -5.9 77 27 28 16.1 100.09   -9 LegendNANA
06:00 Legend Double Dagger -3.5 -6.3 81 27 26 16.1 100.13   -11 LegendNANA
07:00 Legend Double Dagger -3.9 -5.9 86 26 28 16.1 100.14   -11 LegendNANA
08:00 Legend Double Dagger -3.7 -5.4 88 26 21 16.1 100.15   -10 Snow
09:00 Legend Double Dagger -3.6 -6.4 81 26 24 16.1 100.18   -10 LegendNANA
10:00 Legend Double Dagger -3.0 -5.9 80 26 28 16.1 100.18   -10 LegendNANA
11:00 Legend Double Dagger -2.8 -5.8 80 27 30 16.1 100.20   -10 LegendNANA
12:00 Legend Double Dagger -2.9 -6.2 78 26 26 16.1 100.24   -10 LegendNANA
13:00 Legend Double Dagger -3.6 -6.0 84 26 34 16.1 100.26   -12 LegendNANA
14:00 Legend Double Dagger -3.2 -5.4 85 26 32 16.1 100.29   -11 LegendNANA
15:00 Legend Double Dagger -3.0 -5.5 83 27 26 16.1 100.33   -10 LegendNANA
16:00 Legend Double Dagger -3.0 -4.9 87 25 24 16.1 100.37   -10 Snow
17:00 Legend Double Dagger -2.5 -4.2 88 25 30 11.3 100.38   -10 Snow
18:00 Legend Double Dagger -2.5 -3.7 91 26 32 16.1 100.37   -10 LegendNANA
19:00 Legend Double Dagger -2.4 -3.1 95 26 34 4.8 100.41   -10 Snow
20:00 Legend Double Dagger -2.3 -2.9 96 26 28 4.8 100.44   -9 Snow
21:00 Legend Double Dagger -2.4 -3.6 92 25 30 16.1 100.47   -10 Snow
22:00 Legend Double Dagger -2.4 -4.3 87 25 21 16.1 100.50   -8 LegendNANA
23:00 Legend Double Dagger -2.6 -3.7 93 26 34 16.1 100.48   -10 Snow

Notes on Data Quality.

Legend

  • E = Estimated
  • M = Missing
  • NA = Not Available
  • ‡ = Partner data that is not subject to review by the National Climate Archives
Date modified: